Lamoni, IA

7:05 PM CDT on August 16, 2017 (GMT -0500)
Lamoni Municipal

Weather History for KLWD - April, 2013

Change the Weather History Date:

Wednesday, April 17, 2013

  Actual Average Record
Temperature  
Mean Temperature 49 °F 52 °F  
Max Temperature 56 °F 63 °F 85 °F (1975)
Min Temperature 42 °F 42 °F 26 °F (1983)
Degree Days  
Heating Degree Days 16 13  
Month to date heating degree days 314 263  
Since 1 July heating degree days 5675 5752  
Cooling Degree Days 0 0  
Month to date cooling degree days 0 0  
Year to date cooling degree days 0 1  
Moisture  
Dew Point 43 °F    
Average Humidity 79    
Maximum Humidity 93    
Minimum Humidity 65    
Precipitation  
Precipitation 3.95 in 0.14 in 3.99 in (1976)
Month to date precipitation 6.11 1.76  
Sea Level Pressure  
Sea Level Pressure 29.85 in    
Wind  
Wind Speed 12 mph (ENE)    
Max Wind Speed 35 mph    
Max Gust Speed 51 mph    
Visibility 6 miles    
Events Rain , Thunderstorm    
T = Trace of Precipitation, MM = Missing Value Source: NWS Daily Summary

Daily Weather History Graph

Daily Weather History Graph

Search for Another Location

Airport or City:

Trip Planner

Search our weather history database for the weather conditions in past years. The results will help you decide how hot, cold, wet, or windy it might be!

Date:

Astronomy

Apr. 17, 2013 Rise Set
Actual Time 6:33 AM CDT 7:57 PM CDT
Civil Twilight 6:05 AM CDT 8:25 PM CDT
Nautical Twilight 5:30 AM CDT 9:00 PM CDT
Astronomical Twilight 4:54 AM CDT 9:36 PM CDT
Moon 11:47 AM CDT 1:36 AM CDT
Length of Visible Light 14h 20m
Length of Day
13h 23m
Waxing Crescent, 42% of the Moon is Illuminated
Apr 17
Waxing Crescent
Apr 18
First Quarter
Apr 25
Full
May 2
Last Quarter
May 9
New

Hourly Weather History & Observations

Time (CDT) Temp. Windchill Dew Point Humidity Pressure Visibility Wind Dir Wind Speed Gust Speed Precip Events Conditions
12:53 AM 46.0 °F 40.6 °F 35.1 °F 66% 30.16 in 10.0 mi ENE 11.5 mph - N/A   Overcast
1:53 AM 46.0 °F 41.0 °F 35.1 °F 66% 30.14 in 10.0 mi ENE 10.4 mph 17.3 mph N/A   Overcast
2:34 AM 44.6 °F 39.2 °F 35.6 °F 71% 30.10 in 9.0 mi ENE 10.4 mph - 0.00 in Thunderstorm Thunderstorm
2:53 AM 44.1 °F 41.5 °F 37.0 °F 76% 30.13 in 6.0 mi East 4.6 mph - 0.06 in Rain , Thunderstorm Light Thunderstorms and Rain
3:34 AM 42.8 °F 38.0 °F 39.2 °F 87% 30.08 in 7.0 mi ENE 8.1 mph 18.4 mph 0.12 in Rain , Thunderstorm Light Thunderstorms and Rain
3:42 AM 42.8 °F 37.0 °F 39.2 °F 87% 30.07 in 10.0 mi ENE 10.4 mph - 0.12 in Rain Light Rain
3:53 AM 42.1 °F 36.6 °F 39.0 °F 89% 30.07 in 10.0 mi ENE 9.2 mph - 0.12 in Rain Light Rain
3:57 AM 42.8 °F 36.6 °F 39.2 °F 87% 30.05 in 8.0 mi ENE 11.5 mph - 0.00 in Rain , Thunderstorm Light Rain
4:05 AM 42.8 °F 36.2 °F 39.2 °F 87% 30.04 in 8.0 mi East 12.7 mph - 0.02 in Rain , Thunderstorm Light Rain
4:33 AM 42.8 °F 35.8 °F 39.2 °F 87% 30.03 in 10.0 mi East 13.8 mph 18.4 mph 0.03 in   Overcast
4:53 AM 43.0 °F 33.5 °F 39.0 °F 86% 30.12 in 10.0 mi NW 24.2 mph 28.8 mph 0.03 in   Overcast
5:45 AM 42.8 °F 35.1 °F 39.2 °F 87% 30.01 in 10.0 mi East 16.1 mph 21.9 mph N/A   Overcast
5:53 AM 43.0 °F 36.0 °F 39.9 °F 89% 30.00 in 10.0 mi ENE 13.8 mph 27.6 mph 0.00 in Rain Light Rain
6:21 AM 44.6 °F 38.1 °F 39.2 °F 81% 29.98 in - East 13.8 mph 18.4 mph 0.00 in Thunderstorm Thunderstorm
6:34 AM 44.6 °F 37.8 °F 39.2 °F 81% 29.97 in 9.0 mi East 15.0 mph 25.3 mph 0.01 in Rain Light Rain
6:42 AM 44.6 °F 37.2 °F 39.2 °F 81% 29.97 in 10.0 mi East 17.3 mph 25.3 mph 0.01 in Thunderstorm Unknown
6:53 AM 44.1 °F 37.7 °F 39.9 °F 85% 30.00 in 10.0 mi East 12.7 mph 19.6 mph 0.01 in Thunderstorm Overcast
7:31 AM 44.6 °F 38.1 °F 39.2 °F 81% 29.94 in 10.0 mi East 13.8 mph 28.8 mph 0.00 in Rain , Thunderstorm Light Rain
7:53 AM 44.1 °F 36.8 °F 41.0 °F 89% 29.95 in 4.0 mi East 16.1 mph 21.9 mph 0.19 in Rain , Thunderstorm Thunderstorms and Rain
8:39 AM 44.6 °F 38.4 °F 42.8 °F 93% - 2.0 mi East 12.7 mph 21.9 mph 0.11 in Rain , Thunderstorm Heavy Thunderstorms and Rain
8:46 AM 44.6 °F 38.8 °F 42.8 °F 93% - 1.2 mi NNE 11.5 mph 21.9 mph 0.32 in Rain , Thunderstorm Heavy Thunderstorms and Rain
8:48 AM 44.6 °F 38.8 °F 42.8 °F 93% - 1.2 mi NNE 11.5 mph 21.9 mph 0.36 in Rain , Thunderstorm Heavy Thunderstorms and Rain
8:57 AM 42.8 °F 34.8 °F 42.8 °F 100% - 1.8 mi NE 17.3 mph 23.0 mph 0.03 in Rain , Thunderstorm Heavy Thunderstorms and Rain
9:07 AM 42.8 °F 35.4 °F 41.0 °F 93% - 3.0 mi NE 15.0 mph 23.0 mph 0.08 in Rain , Thunderstorm Light Thunderstorms and Rain
9:17 AM - - - N/A% - - North - - 0.08 in Thunderstorm Thunderstorm
9:32 AM 42.8 °F 34.0 °F 39.2 °F 87% 30.06 in 2.5 mi North 20.7 mph 32.2 mph 0.16 in Rain , Thunderstorm Light Thunderstorms and Rain
9:39 AM 42.8 °F 35.4 °F 39.2 °F 87% 30.06 in 3.0 mi NE 15.0 mph 27.6 mph 0.18 in Rain , Thunderstorm Light Thunderstorms and Rain
9:45 AM 42.8 °F 34.8 °F 39.2 °F 87% 30.03 in 2.5 mi East 17.3 mph 25.3 mph 0.19 in Rain , Thunderstorm Light Thunderstorms and Rain
9:47 AM 42.8 °F 34.8 °F 39.2 °F 87% 30.03 in 2.5 mi East 17.3 mph 25.3 mph 0.24 in Rain , Thunderstorm Heavy Thunderstorms and Rain
9:53 AM 43.0 °F 35.1 °F 39.0 °F 86% 30.01 in 1.8 mi ENE 17.3 mph 25.3 mph 0.34 in Rain , Thunderstorm Heavy Thunderstorms and Rain
10:00 AM 42.8 °F 35.4 °F 39.2 °F 87% 29.97 in 1.2 mi East 15.0 mph 24.2 mph 0.14 in Rain , Thunderstorm Heavy Thunderstorms and Rain
10:06 AM 42.8 °F 36.2 °F 39.2 °F 87% 29.97 in 3.0 mi East 12.7 mph 21.9 mph 0.16 in Rain , Thunderstorm Thunderstorms and Rain
10:53 AM 43.0 °F 37.2 °F 39.9 °F 89% 29.95 in 7.0 mi ENE 10.4 mph 18.4 mph 0.19 in Rain Light Rain
11:09 AM 42.8 °F 35.8 °F 39.2 °F 87% 29.90 in 10.0 mi East 13.8 mph - 0.00 in Thunderstorm Thunderstorm
11:53 AM 43.0 °F 37.2 °F 41.0 °F 93% 29.91 in 2.0 mi NE 10.4 mph - 0.14 in Rain , Thunderstorm Thunderstorms and Rain
12:03 PM 42.8 °F 37.0 °F 41.0 °F 93% 29.89 in 6.0 mi East 10.4 mph - 0.01 in Rain , Thunderstorm Light Rain
12:17 PM 42.8 °F 35.8 °F 41.0 °F 93% 29.88 in 1.8 mi ESE 13.8 mph 18.4 mph 0.08 in Rain , Thunderstorm Heavy Thunderstorms and Rain
12:28 PM 44.6 °F 39.2 °F 42.8 °F 93% 29.88 in 3.0 mi East 10.4 mph 18.4 mph 0.15 in Rain , Thunderstorm Light Thunderstorms and Rain
12:41 PM 44.6 °F 39.2 °F 42.8 °F 93% 29.86 in 1.8 mi ESE 10.4 mph - 0.23 in Rain , Thunderstorm Heavy Thunderstorms and Rain
12:51 PM 44.6 °F 38.8 °F 42.8 °F 93% 29.84 in 3.0 mi ESE 11.5 mph - 0.29 in Rain , Thunderstorm Light Thunderstorms and Rain
12:53 PM 44.1 °F 38.6 °F 42.1 °F 93% 29.86 in 4.0 mi ESE 10.4 mph 18.4 mph 0.29 in Rain , Thunderstorm Light Thunderstorms and Rain
1:21 PM 44.6 °F 40.7 °F 42.8 °F 93% 29.81 in 10.0 mi East 6.9 mph - 0.03 in Thunderstorm Overcast
1:33 PM 46.4 °F 40.7 °F 44.6 °F 93% 29.80 in 10.0 mi ESE 12.7 mph 19.6 mph 0.03 in   Overcast
1:42 PM 46.4 °F 40.7 °F 44.6 °F 93% 29.80 in 10.0 mi ESE 12.7 mph 20.7 mph 0.03 in Rain , Thunderstorm Light Rain
1:50 PM 46.4 °F 41.9 °F 44.6 °F 93% 29.80 in 10.0 mi ESE 9.2 mph 18.4 mph 0.03 in Thunderstorm Overcast
1:53 PM 46.9 °F - 44.1 °F 90% 29.83 in 10.0 mi Variable 4.6 mph 17.3 mph 0.03 in Thunderstorm Overcast
2:02 PM 46.4 °F 42.4 °F 44.6 °F 93% 29.86 in 10.0 mi WNW 8.1 mph 20.7 mph N/A   Overcast
2:15 PM 46.4 °F - 44.6 °F 93% 29.85 in 2.5 mi Calm Calm - 0.02 in Rain Rain
2:25 PM 46.4 °F 43.5 °F 44.6 °F 93% 29.83 in 1.5 mi NE 5.8 mph - 0.12 in Rain Rain
2:53 PM 48.0 °F - 46.0 °F 93% 29.85 in 1.8 mi NNW 8.1 mph - 0.16 in Rain Light Rain
3:08 PM 48.2 °F - 46.4 °F 93% 29.82 in 1.5 mi NE 4.6 mph - 0.02 in Rain Light Rain
3:40 PM 48.2 °F - 46.4 °F 93% 29.78 in 3.0 mi East 5.8 mph - 0.03 in   Overcast
3:50 PM 48.2 °F - 46.4 °F 93% 29.77 in 2.0 mi East 9.2 mph - 0.03 in   Overcast
3:53 PM 48.0 °F - 46.9 °F 96% 29.78 in 1.8 mi East 8.1 mph - 0.03 in   Overcast
4:00 PM 48.2 °F - 46.4 °F 93% 29.75 in 1.5 mi East 10.4 mph - N/A   Overcast
4:10 PM 48.2 °F - 46.4 °F 93% 29.74 in 1.8 mi East 8.1 mph - 0.01 in Rain Light Rain
4:18 PM 48.2 °F - 48.2 °F 100% 29.74 in 3.0 mi East 9.2 mph - 0.01 in   Overcast
4:28 PM 48.2 °F - 48.2 °F 100% 29.73 in 2.5 mi East 5.8 mph - 0.01 in   Overcast
4:41 PM 50.0 °F - 48.2 °F 94% 29.75 in 2.5 mi ESE 5.8 mph - 0.03 in Rain , Thunderstorm Thunderstorms and Rain
4:51 PM 51.8 °F - 48.2 °F 88% 29.75 in 3.0 mi ESE 8.1 mph - 0.07 in Rain , Thunderstorm Thunderstorms and Rain
4:53 PM 51.1 °F - 50.0 °F 96% 29.75 in 3.0 mi ESE 9.2 mph - 0.07 in Rain , Thunderstorm Thunderstorms and Rain
5:02 PM 51.8 °F - 50.0 °F 94% 29.72 in 4.0 mi East 8.1 mph - 0.02 in Rain , Thunderstorm Light Rain
5:07 PM 51.8 °F - 50.0 °F 94% 29.72 in 4.0 mi East 8.1 mph - 0.02 in Rain , Thunderstorm Light Rain
5:20 PM 53.6 °F - 51.8 °F 94% 29.72 in 1.8 mi East 11.5 mph 17.3 mph 0.11 in Rain , Thunderstorm Heavy Thunderstorms and Rain
5:47 PM 53.6 °F - 53.6 °F 100% 29.73 in 3.0 mi ESE 9.2 mph - 0.41 in Rain , Thunderstorm Light Thunderstorms and Rain
5:53 PM 54.0 °F - 53.1 °F 97% 29.74 in 6.0 mi ESE 11.5 mph 17.3 mph 0.43 in Rain , Thunderstorm Light Rain
6:24 PM 55.4 °F - 53.6 °F 94% 29.71 in 10.0 mi East 13.8 mph 23.0 mph 0.07 in Rain , Thunderstorm Light Rain
6:31 PM 55.4 °F - 51.8 °F 88% 29.71 in 10.0 mi ESE 13.8 mph 23.0 mph 0.09 in Rain , Thunderstorm Light Rain
6:39 PM 55.4 °F - 53.6 °F 94% 29.81 in 1.8 mi WSW 12.7 mph 26.5 mph 0.17 in Rain , Thunderstorm Heavy Thunderstorms and Rain
6:44 PM 48.2 °F - 44.6 °F 87% 29.82 in 0.8 mi NW 17.3 mph 47.2 mph 0.31 in Rain , Thunderstorm Heavy Thunderstorms and Rain
6:53 PM 44.1 °F 34.8 °F 42.1 °F 93% 29.82 in 1.2 mi NW 25.3 mph 50.6 mph 0.38 in Rain , Thunderstorm Thunderstorms and Rain
6:56 PM 44.6 °F 36.9 °F 42.8 °F 93% 29.76 in 2.5 mi North 18.4 mph 40.3 mph 0.03 in Rain , Thunderstorm Light Thunderstorms and Rain
7:02 PM 44.6 °F 36.9 °F 41.0 °F 87% 29.72 in 7.0 mi North 18.4 mph 29.9 mph 0.03 in Rain , Thunderstorm Light Thunderstorms and Rain
7:26 PM 44.6 °F 37.4 °F 41.0 °F 87% 29.74 in 10.0 mi North 16.1 mph - 0.04 in Thunderstorm Thunderstorm
7:53 PM 44.1 °F 37.4 °F 42.1 °F 93% 29.73 in 9.0 mi NE 13.8 mph - 0.17 in Rain , Thunderstorm Light Thunderstorms and Rain
8:02 PM 44.6 °F 37.4 °F 42.8 °F 93% 29.71 in 10.0 mi NNE 16.1 mph - 0.00 in Rain Light Rain
8:13 PM 44.6 °F 38.1 °F 42.8 °F 93% 29.73 in 7.0 mi NNE 13.8 mph - 0.02 in Rain , Thunderstorm Light Thunderstorms and Rain
8:53 PM 44.1 °F 37.1 °F 42.1 °F 93% 29.73 in 6.0 mi ENE 15.0 mph - 0.16 in Rain , Thunderstorm Thunderstorms and Rain
9:18 PM 44.6 °F 41.4 °F 42.8 °F 93% 29.70 in 5.0 mi Variable 5.8 mph - 0.08 in Rain , Thunderstorm Light Thunderstorms and Rain
9:39 PM 46.4 °F 39.2 °F 44.6 °F 93% 29.69 in 4.0 mi ENE 18.4 mph 23.0 mph 0.16 in Rain , Thunderstorm Heavy Rain
9:53 PM 46.9 °F - 44.1 °F 90% 29.69 in 6.0 mi NE 13.8 mph - 0.22 in Rain , Thunderstorm Light Thunderstorms and Rain
10:15 PM 46.4 °F 41.5 °F 44.6 °F 93% 29.66 in 10.0 mi ENE 10.4 mph - 0.02 in Rain Light Rain
10:22 PM 46.4 °F 41.9 °F 44.6 °F 93% 29.67 in 10.0 mi East 9.2 mph - 0.03 in Rain , Thunderstorm Light Rain
10:34 PM 48.2 °F - 46.4 °F 93% 29.67 in 9.0 mi East 6.9 mph - 0.04 in Rain , Thunderstorm Light Thunderstorms and Rain
10:53 PM 46.9 °F - 45.0 °F 93% 29.71 in 10.0 mi NW 11.5 mph - 0.05 in Rain , Thunderstorm Light Rain
10:58 PM 46.4 °F 40.7 °F 44.6 °F 93% 29.70 in 9.0 mi WNW 12.7 mph - 0.01 in Rain Light Rain
11:19 PM 46.4 °F 45.2 °F 44.6 °F 93% 29.67 in 7.0 mi NNW 3.5 mph - 0.01 in Rain , Thunderstorm Light Thunderstorms and Rain
11:48 PM 46.4 °F 41.9 °F 44.6 °F 93% 29.65 in 8.0 mi NNW 9.2 mph - 0.11 in Rain Light Rain
11:53 PM 46.9 °F - 45.0 °F 93% 29.67 in 10.0 mi NW 12.7 mph - 0.11 in   Overcast